Tehachapi, CA

12:28 AM PST on December 08, 2019 (GMT -0800)
Tehachapi Municipal

Weather History for KTSP - October, 2019

Change the Weather History Date:

Monday, October 28, 2019

  Actual Average Record
Temperature  
Mean Temperature 44 °F -  
Max Temperature 55 °F 65 °F 80 °F (2017)
Min Temperature 32 °F 39 °F 32 °F (2014)
Degree Days  
Heating Degree Days 22    
Moisture  
Dew Point 5 °F    
Average Humidity 21    
Maximum Humidity 36    
Minimum Humidity 8    
Precipitation  
Precipitation 0.00 in - - ()
Sea Level Pressure  
Sea Level Pressure 30.07 in    
Wind  
Wind Speed 12 mph ()    
Max Wind Speed 21 mph    
Max Gust Speed 29 mph    
Visibility 9.3 miles    
Events      
Averages and records for this station are not official NWS values.
T = Trace of Precipitation, MM = Missing Value Source: Averaged Metar Reports

Daily Weather History Graph

Daily Weather History Graph

Search for Another Location

Airport or City:

Astronomy

Oct. 28, 2019 Rise Set
Actual Time 7:11 AM PDT 6:03 PM PDT
Civil Twilight 6:45 AM PDT 6:29 PM PDT
Nautical Twilight 6:15 AM PDT 6:59 PM PDT
Astronomical Twilight 5:45 AM PDT 7:28 PM PDT
Moon 7:39 AM PDT (10/28) 6:52 PM PDT (10/28)
Length of Visible Light 11h 44m
Length of Day
10h 52m
New Moon, 1% of the Moon is Illuminated
Oct 28
New Moon
Nov 4
First Quarter
Nov 12
Full
Nov 19
Last Quarter
Nov 26
New

Hourly Weather History & Observations

Time (PDT) Temp. Windchill Dew Point Humidity Pressure Visibility Wind Dir Wind Speed Gust Speed Precip Events Conditions
12:15 AM 44.6 °F 38.4 °F 3.2 °F 18% 30.00 in 10.0 mi ESE 12.7 mph 20.7 mph N/A   Clear
12:35 AM 44.6 °F 36.6 °F 5.0 °F 20% 30.01 in 10.0 mi East 19.6 mph 26.5 mph N/A   Clear
12:55 AM 44.6 °F 37.4 °F 5.0 °F 20% 30.02 in 10.0 mi ESE 16.1 mph 24.2 mph N/A   Clear
1:15 AM 42.8 °F 35.1 °F 5.0 °F 21% 30.02 in 10.0 mi ESE 16.1 mph 25.3 mph N/A   Clear
1:35 AM 42.8 °F 36.2 °F 5.0 °F 21% 30.03 in 10.0 mi East 12.7 mph 21.9 mph N/A   Clear
1:55 AM 42.8 °F 34.5 °F 5.0 °F 21% 30.03 in 10.0 mi East 18.4 mph 25.3 mph N/A   Partly Cloudy
2:15 AM 42.8 °F 35.1 °F 5.0 °F 21% 30.04 in 10.0 mi East 16.1 mph 24.2 mph N/A   Scattered Clouds
2:35 AM 41.0 °F 33.1 °F 5.0 °F 23% 30.05 in 10.0 mi ESE 15.0 mph 21.9 mph N/A   Partly Cloudy
2:55 AM 41.0 °F 34.7 °F 5.0 °F 23% 30.06 in 10.0 mi SE 10.4 mph 24.2 mph N/A   Clear
3:15 AM 39.2 °F 30.8 °F 5.0 °F 24% 30.06 in 10.0 mi SE 15.0 mph 19.6 mph N/A   Scattered Clouds
3:35 AM 37.4 °F 30.3 °F 5.0 °F 26% 30.07 in 10.0 mi East 10.4 mph - N/A   Mostly Cloudy
3:55 AM 37.4 °F 31.4 °F 5.0 °F 26% 30.06 in 10.0 mi East 8.1 mph - N/A   Scattered Clouds
4:15 AM 37.4 °F 30.8 °F 5.0 °F 26% 30.07 in 10.0 mi SSE 9.2 mph - N/A   Scattered Clouds
4:35 AM 39.2 °F 32.5 °F 1.4 °F 21% 30.08 in 10.0 mi East 10.4 mph - N/A   Scattered Clouds
4:55 AM 39.2 °F 31.6 °F 3.2 °F 22% 30.08 in 10.0 mi East 12.7 mph - N/A   Scattered Clouds
5:15 AM 37.4 °F 30.3 °F 3.2 °F 24% 30.09 in 10.0 mi ESE 10.4 mph - N/A   Scattered Clouds
5:35 AM 37.4 °F 30.8 °F 3.2 °F 24% 30.09 in 10.0 mi ESE 9.2 mph - N/A   Scattered Clouds
5:55 AM 35.6 °F 29.9 °F 3.2 °F 26% 30.10 in 10.0 mi ESE 6.9 mph - N/A   Partly Cloudy
6:15 AM 35.6 °F 29.2 °F 3.2 °F 26% 30.11 in 10.0 mi ENE 8.1 mph - N/A   Partly Cloudy
6:35 AM 35.6 °F 29.2 °F 5.0 °F 28% 30.12 in 10.0 mi East 8.1 mph - N/A   Partly Cloudy
6:55 AM 33.8 °F 27.0 °F 5.0 °F 30% 30.13 in 10.0 mi ESE 8.1 mph - N/A   Scattered Clouds
7:15 AM 32.0 °F 24.8 °F 5.0 °F 32% 30.13 in 10.0 mi SE 8.1 mph - N/A   Partly Cloudy
7:35 AM 33.8 °F 25.8 °F 5.0 °F 30% 30.13 in 10.0 mi ESE 10.4 mph - N/A   Clear
7:55 AM 37.4 °F 30.3 °F 5.0 °F 26% 30.13 in 10.0 mi East 10.4 mph 17.3 mph N/A   Clear
8:15 AM 41.0 °F 34.3 °F 5.0 °F 23% 30.13 in 10.0 mi ESE 11.5 mph - N/A   Clear
8:35 AM 42.8 °F 35.1 °F 5.0 °F 21% 30.13 in 10.0 mi SE 16.1 mph 21.9 mph N/A   Clear
8:55 AM 44.6 °F 37.8 °F 5.0 °F 20% 30.14 in 10.0 mi ESE 15.0 mph 24.2 mph N/A   Clear
10:35 AM 48.2 °F - 5.0 °F 17% 30.15 in 9.0 mi SE 19.6 mph 26.5 mph N/A   Clear
10:55 AM 48.2 °F - 5.0 °F 17% 30.15 in 9.0 mi SE 18.4 mph 26.5 mph N/A   Clear
11:15 AM 48.2 °F - 5.0 °F 17% 30.14 in 8.0 mi SE 19.6 mph 28.8 mph N/A   Clear
11:35 AM 48.2 °F - 5.0 °F 17% 30.14 in 9.0 mi ESE 18.4 mph 27.6 mph N/A   Clear
11:55 AM 50.0 °F - 3.2 °F 15% 30.14 in 9.0 mi ESE 20.7 mph 28.8 mph N/A   Clear
12:15 PM 50.0 °F - 1.4 °F 14% 30.14 in 9.0 mi ESE 15.0 mph 25.3 mph N/A   Clear
12:35 PM 50.0 °F - 1.4 °F 14% 30.13 in 8.0 mi ESE 20.7 mph 26.5 mph N/A   Clear
12:55 PM 51.8 °F - -0.4 °F 12% 30.12 in 7.0 mi ESE 15.0 mph 21.9 mph N/A   Clear
1:15 PM 53.6 °F - 1.4 °F 12% 30.11 in 7.0 mi ESE 19.6 mph 24.2 mph N/A   Clear
1:35 PM 53.6 °F - -0.4 °F 11% 30.10 in 7.0 mi ESE 18.4 mph 23.0 mph N/A   Clear
1:55 PM 55.4 °F - -0.4 °F 10% 30.09 in 8.0 mi ESE 16.1 mph 23.0 mph N/A   Clear
2:15 PM 55.4 °F - -2.2 °F 9% 30.08 in 8.0 mi ESE 15.0 mph 20.7 mph N/A   Clear
2:35 PM 53.6 °F - -0.4 °F 11% 30.07 in 6.0 mi ESE 13.8 mph 20.7 mph N/A   Haze
2:55 PM 55.4 °F - -4.0 °F 9% 30.06 in 9.0 mi East 13.8 mph 19.6 mph N/A   Clear
3:15 PM 55.4 °F - -4.0 °F 9% 30.06 in 8.0 mi ESE 11.5 mph 18.4 mph N/A   Clear
3:35 PM 55.4 °F - -5.8 °F 8% 30.06 in 9.0 mi East 13.8 mph - N/A   Clear
3:55 PM 55.4 °F - -4.0 °F 9% 30.05 in 9.0 mi East 9.2 mph - N/A   Clear
4:15 PM 55.4 °F - -4.0 °F 9% 30.04 in 10.0 mi East 8.1 mph - N/A   Clear
4:35 PM 55.4 °F - -4.0 °F 9% 30.04 in 9.0 mi East 8.1 mph - N/A   Clear
4:55 PM 55.4 °F - -4.0 °F 9% 30.04 in 10.0 mi ESE 6.9 mph - N/A   Clear
5:15 PM 53.6 °F - -4.0 °F 9% 30.03 in 10.0 mi ESE 4.6 mph - N/A   Clear
5:35 PM 51.8 °F - -0.4 °F 12% 30.03 in 10.0 mi SE 5.8 mph - N/A   Clear
5:55 PM 48.2 °F - -2.2 °F 12% 30.02 in 10.0 mi ESE 5.8 mph - N/A   Clear
6:15 PM 46.4 °F - -2.2 °F 13% 30.02 in 10.0 mi Calm Calm - N/A   Clear
6:35 PM 42.8 °F - -2.2 °F 15% 30.02 in 10.0 mi Calm Calm - N/A   Partly Cloudy
6:55 PM 41.0 °F 39.0 °F 1.4 °F 19% 30.02 in 10.0 mi NNW 3.5 mph - N/A   Partly Cloudy
7:15 PM 44.6 °F - 1.4 °F 17% 30.03 in 10.0 mi Calm Calm - N/A   Clear
7:35 PM 41.0 °F 34.7 °F 8.6 °F 26% 30.03 in 10.0 mi West 10.4 mph - N/A   Clear
7:55 PM 42.8 °F 37.5 °F 14.0 °F 31% 30.04 in 10.0 mi West 9.2 mph - N/A   Clear
8:15 PM 46.4 °F 41.1 °F 14.0 °F 27% 30.04 in 10.0 mi West 11.5 mph - N/A   Clear
8:35 PM 44.6 °F 38.8 °F 15.8 °F 31% 30.04 in 9.0 mi WNW 11.5 mph - N/A   Clear
8:55 PM 44.6 °F 38.8 °F 15.8 °F 31% 30.03 in 8.0 mi WNW 11.5 mph - N/A   Clear
9:15 PM 44.6 °F 38.4 °F 15.8 °F 31% 30.03 in 8.0 mi WNW 12.7 mph - N/A   Clear
9:35 PM 44.6 °F 38.4 °F 15.8 °F 31% 30.02 in 9.0 mi WNW 12.7 mph - N/A   Clear
9:55 PM 44.6 °F 38.4 °F 15.8 °F 31% 30.02 in 9.0 mi West 12.7 mph - N/A   Clear
10:15 PM 42.8 °F 37.0 °F 15.8 °F 34% 30.02 in 8.0 mi West 10.4 mph - N/A   Clear
10:35 PM 42.8 °F 37.5 °F 17.6 °F 36% 30.02 in 10.0 mi West 9.2 mph - N/A   Clear
10:55 PM 42.8 °F 37.0 °F 17.6 °F 36% 30.02 in 9.0 mi WSW 10.4 mph - N/A   Clear
11:15 PM 42.8 °F 36.6 °F 17.6 °F 36% 30.02 in 8.0 mi West 11.5 mph - N/A   Clear
11:35 PM 42.8 °F 36.2 °F 17.6 °F 36% 30.01 in 9.0 mi West 12.7 mph - N/A   Clear
11:55 PM 44.6 °F 38.1 °F 17.6 °F 34% 30.00 in 9.0 mi West 13.8 mph - N/A   Clear